[ hide orbit diagram ]
For accurate long-term ephemerides, please instead use our Horizons system.This orbit viewer was implemented using two-body methods, and hence should not be used for determining accurate long-term trajectories (over several years or decades) or planetary encounter circumstances.
Orbital Elements at Epoch 2459000.5 (2020-May-31.0) TDB
Reference: JPL 23 (heliocentric ecliptic J2000)
Element | Value | Uncertainty (1-sigma) | Units |
e | .06803766629193053 | 4.9451e-08 | |
a | 3.02969897562891 | 2.1675e-08 | au |
q | 2.823565327760067 | 1.4988e-07 | au |
i | 9.198878143327768 | 5.2915e-06 | deg |
node | 178.1609546611179 | 2.6605e-05 | deg |
peri | 138.7538730049315 | 4.0477e-05 | deg |
M | 198.8157938501192 | 3.258e-05 | deg |
tp | 2459862.917639609568 (2022-Oct-10.41763961) | 0.00017727 | TDB |
period | 1926.183449827252 5.27 | 2.067e-05 5.659e-08 | d yr |
n | .1868980859701013 | 2.0056e-09 | deg/d |
Q | 3.235832623497753 | 2.3149e-08 | au |
|
| | Orbit Determination Parameters
Additional Information
|
[ show covariance matrix ]
Physical Parameter Table
Parameter |
Symbol |
Value |
Units |
Sigma |
Reference |
Notes |
absolute magnitude |
H |
15.0 |
|
n/a |
MPO426694 |
|
|
109539 (2001 QR251) Discovered 2001-Aug-25 by LINEAR at Socorro |
Reference: 20051019/Numbers.arc | Last Updated: 2005-10-26 |
|
[ show close-approach data ]
|